TimeCST,TemperatureF,Dew PointF,Humidity,Sea Level PressureIn,VisibilityMPH,Wind Direction,Wind SpeedMPH,Gust SpeedMPH,PrecipitationIn,Events,Conditions,WindDirDegrees,DateUTC
12:12 AM,21.2,19.4,93,30.04,4.0,NNW,19.6,-,N/A,,Scattered Clouds,330,2013-02-28 06:12:00
12:52 AM,19.4,19.4,100,30.05,5.0,NW,17.3,-,N/A,,Clear,320,2013-02-28 06:52:00
1:12 AM,19.4,17.6,93,30.05,5.0,NW,17.3,-,N/A,,Clear,320,2013-02-28 07:12:00
1:33 AM,19.4,17.6,93,30.06,5.0,NW,16.1,-,N/A,,Clear,320,2013-02-28 07:33:00
1:52 AM,19.4,17.6,93,30.06,5.0,NW,17.3,-,N/A,,Scattered Clouds,320,2013-02-28 07:52:00
2:12 AM,19.4,19.4,100,30.06,5.0,NNW,17.3,-,N/A,,Mostly Cloudy,330,2013-02-28 08:12:00
2:33 AM,19.4,19.4,100,30.07,5.0,NNW,17.3,-,N/A,,Overcast,330,2013-02-28 08:33:00
2:52 AM,21.2,19.4,93,30.06,7.0,NW,16.1,-,N/A,,Overcast,320,2013-02-28 08:52:00
3:12 AM,19.4,19.4,100,30.07,7.0,NW,16.1,-,N/A,,Overcast,320,2013-02-28 09:12:00
3:33 AM,21.2,19.4,93,30.07,7.0,NW,16.1,-,N/A,,Overcast,310,2013-02-28 09:33:00
3:52 AM,19.4,19.4,100,30.07,7.0,NW,15.0,19.6,N/A,,Overcast,310,2013-02-28 09:52:00
4:12 AM,19.4,19.4,100,30.08,7.0,NW,17.3,-,N/A,,Overcast,320,2013-02-28 10:12:00
4:33 AM,19.4,17.6,93,30.08,7.0,NW,13.8,-,N/A,,Overcast,310,2013-02-28 10:33:00
4:52 AM,19.4,17.6,93,30.09,7.0,NW,12.7,-,N/A,,Overcast,320,2013-02-28 10:52:00
5:12 AM,19.4,17.6,93,30.09,10.0,NW,11.5,-,N/A,,Overcast,310,2013-02-28 11:12:00
5:33 AM,19.4,17.6,93,30.10,10.0,NW,11.5,-,N/A,,Overcast,310,2013-02-28 11:33:00
5:52 AM,19.4,17.6,93,30.11,10.0,NW,11.5,-,N/A,,Overcast,310,2013-02-28 11:52:00
6:12 AM,19.4,17.6,93,30.11,10.0,NW,11.5,-,N/A,,Overcast,310,2013-02-28 12:12:00
6:33 AM,19.4,17.6,93,30.11,10.0,NW,13.8,-,N/A,,Overcast,320,2013-02-28 12:33:00
6:52 AM,19.4,17.6,93,30.11,10.0,NW,13.8,-,N/A,,Overcast,310,2013-02-28 12:52:00
7:12 AM,19.4,17.6,93,30.11,10.0,NW,12.7,-,N/A,,Overcast,310,2013-02-28 13:12:00
7:33 AM,19.4,17.6,93,30.12,10.0,NW,12.7,-,N/A,,Overcast,310,2013-02-28 13:33:00
7:52 AM,19.4,19.4,100,30.13,10.0,NW,12.7,-,N/A,,Overcast,310,2013-02-28 13:52:00
8:12 AM,21.2,19.4,93,30.13,10.0,NW,11.5,-,N/A,,Overcast,310,2013-02-28 14:12:00
8:33 AM,21.2,19.4,93,30.13,10.0,NW,11.5,-,N/A,,Overcast,310,2013-02-28 14:33:00
8:52 AM,21.2,19.4,93,30.14,10.0,NW,12.7,-,N/A,,Overcast,310,2013-02-28 14:52:00
9:12 AM,21.2,19.4,93,30.14,10.0,NW,11.5,-,N/A,,Overcast,310,2013-02-28 15:12:00
9:33 AM,21.2,19.4,93,30.14,10.0,NW,12.7,-,N/A,,Overcast,320,2013-02-28 15:33:00
9:52 AM,21.2,19.4,93,30.14,10.0,NW,12.7,-,N/A,,Overcast,320,2013-02-28 15:52:00
10:12 AM,21.2,19.4,93,30.15,10.0,NW,13.8,-,N/A,,Overcast,310,2013-02-28 16:12:00
10:33 AM,23.0,19.4,86,30.15,10.0,NW,12.7,-,N/A,,Overcast,320,2013-02-28 16:33:00
10:52 AM,23.0,19.4,86,30.16,10.0,NW,12.7,-,N/A,,Overcast,310,2013-02-28 16:52:00
11:12 AM,23.0,21.2,93,30.16,10.0,NW,12.7,-,N/A,,Overcast,320,2013-02-28 17:12:00
11:33 AM,24.8,21.2,86,30.16,10.0,NW,11.5,-,N/A,,Overcast,310,2013-02-28 17:33:00
11:52 AM,24.8,21.2,86,30.16,10.0,NW,10.4,-,N/A,,Overcast,310,2013-02-28 17:52:00
12:33 PM,24.8,21.2,86,30.16,10.0,NW,12.7,-,N/A,,Overcast,320,2013-02-28 18:33:00
12:52 PM,24.8,21.2,86,30.16,10.0,NW,11.5,-,N/A,,Overcast,320,2013-02-28 18:52:00
1:12 PM,24.8,21.2,86,30.15,10.0,NW,13.8,-,N/A,,Overcast,320,2013-02-28 19:12:00
1:33 PM,24.8,21.2,86,30.15,10.0,NW,12.7,-,N/A,,Overcast,320,2013-02-28 19:33:00
1:52 PM,24.8,21.2,86,30.15,10.0,NW,12.7,-,N/A,,Overcast,320,2013-02-28 19:52:00
2:13 PM,24.8,23.0,93,30.15,10.0,NNW,13.8,-,N/A,,Overcast,330,2013-02-28 20:13:00
2:33 PM,24.8,23.0,93,30.15,10.0,NW,13.8,-,N/A,,Overcast,320,2013-02-28 20:33:00
2:52 PM,24.8,23.0,93,30.15,10.0,NW,13.8,-,N/A,,Overcast,320,2013-02-28 20:52:00
3:13 PM,26.6,23.0,86,30.15,10.0,NW,13.8,-,N/A,,Overcast,320,2013-02-28 21:13:00
3:33 PM,24.8,23.0,93,30.15,10.0,NW,13.8,-,N/A,,Overcast,320,2013-02-28 21:33:00
3:52 PM,24.8,23.0,93,30.15,10.0,NW,13.8,-,N/A,,Overcast,320,2013-02-28 21:52:00
4:13 PM,24.8,21.2,86,30.15,10.0,NW,15.0,-,N/A,,Overcast,320,2013-02-28 22:13:00
4:33 PM,24.8,21.2,86,30.16,10.0,NNW,13.8,-,N/A,Snow,Light Snow,330,2013-02-28 22:33:00
4:52 PM,24.8,21.2,86,30.16,10.0,NNW,12.7,-,N/A,,Overcast,330,2013-02-28 22:52:00
5:12 PM,24.8,21.2,86,30.16,10.0,NNW,11.5,-,N/A,,Overcast,330,2013-02-28 23:12:00
5:33 PM,24.8,21.2,86,30.16,10.0,NNW,11.5,-,N/A,,Overcast,330,2013-02-28 23:33:00
5:52 PM,24.8,21.2,86,30.17,10.0,NNW,13.8,-,N/A,,Overcast,330,2013-02-28 23:52:00
6:12 PM,24.8,21.2,86,30.17,10.0,NNW,12.7,-,N/A,,Overcast,330,2013-03-01 00:12:00
6:33 PM,24.8,21.2,86,30.18,10.0,NNW,10.4,-,N/A,,Overcast,330,2013-03-01 00:33:00
6:52 PM,24.8,21.2,86,30.18,10.0,NNW,11.5,-,N/A,,Overcast,330,2013-03-01 00:52:00
7:12 PM,24.8,21.2,86,30.18,7.0,NNW,10.4,-,N/A,Snow,Light Snow,330,2013-03-01 01:12:00
7:33 PM,24.8,21.2,86,30.18,7.0,NW,11.5,-,N/A,Snow,Light Snow,320,2013-03-01 01:33:00
7:52 PM,24.8,21.2,86,30.18,7.0,NW,10.4,-,N/A,Snow,Light Snow,320,2013-03-01 01:52:00
8:12 PM,23.0,21.2,93,30.18,5.0,NW,11.5,-,N/A,Snow,Light Snow,320,2013-03-01 02:12:00
8:33 PM,23.0,21.2,93,30.19,5.0,NNW,11.5,-,N/A,Snow,Light Snow,330,2013-03-01 02:33:00
8:52 PM,23.0,21.2,93,30.19,4.0,NW,10.4,-,N/A,Snow,Light Snow,320,2013-03-01 02:52:00
9:12 PM,23.0,21.2,93,30.19,5.0,NW,11.5,-,N/A,Snow,Light Snow,320,2013-03-01 03:12:00
9:33 PM,23.0,21.2,93,30.19,4.0,NW,11.5,-,N/A,Snow,Light Snow,320,2013-03-01 03:33:00
9:52 PM,23.0,21.2,93,30.19,5.0,NW,11.5,-,N/A,Snow,Light Snow,320,2013-03-01 03:52:00
10:12 PM,23.0,21.2,93,30.19,4.0,NNW,10.4,-,N/A,Snow,Light Snow,330,2013-03-01 04:12:00
10:33 PM,23.0,21.2,93,30.19,4.0,NNW,11.5,-,N/A,Snow,Light Snow,330,2013-03-01 04:33:00
10:52 PM,23.0,21.2,93,30.19,4.0,NNW,9.2,-,N/A,Snow,Light Snow,330,2013-03-01 04:52:00
11:12 PM,23.0,21.2,93,30.18,5.0,NW,10.4,-,N/A,Snow,Light Snow,320,2013-03-01 05:12:00
11:33 PM,23.0,21.2,93,30.18,7.0,NW,9.2,-,N/A,Snow,Light Snow,320,2013-03-01 05:33:00
11:52 PM,23.0,21.2,93,30.18,7.0,NW,11.5,-,N/A,Snow,Light Snow,320,2013-03-01 05:52:00